x

East Bahamas - 335 Nm East Of San Salvador Is, Bahamas (41046) Wave Buoy

1:50am - Mon 26th Jan 2015 All times are UTC.

  • Sig Wave height 3.6ft
  • Swell Direction
  • Peak Period 9s
  • Average Period 5s
  • Wind
    11mph, 13mph gusts
  • Sea Temp 79°f
  • Air Temp 78°f
  • Sea Pressure 1016mb

More Historic Weather Station data

Upgrade to MSW Pro to gain access to the past 30 days of data for over 8000 Wavebouys and Weather Stations around the globe.

Join Pro

Comparision Forecast

View Surf forecast
   
Mon 01/26 1:50am 3.5ft 9s 5s 11 13 mph 1016mb 79f 78f
12:50am 3.5ft 11s 5s 13 16 mph 1015.8mb 79f 78f
Sun 01/25 11:50pm 3.5ft 9s 5s 11 13 mph 1015.7mb 79f 78f
10:50pm 3.5ft 9s 5s 13 16 mph 1015.2mb 79f 78f
9:50pm 3.5ft 9s 6s 13 16 mph 1014.8mb 79f 78f
8:50pm 3.5ft 8s 5s 11 13 mph 1014.5mb 79f 79f
7:50pm 3.5ft 10s 5s 11 13 mph 1014.5mb 79f 79f
6:50pm 3ft 11s 5s 13 16 mph 1014.6mb 79f 79f
5:50pm 3.5ft 10s 5s 13
mph
1014.8mb 79f 79f
4:50pm 3.5ft 9s 5s 13 16 mph 1015.7mb 79f 79f
3:50pm 3.5ft 9s 5s 16 18 mph 1016.5mb 79f 79f
2:50pm 3.5ft 9s 5s 13 16 mph 1017mb 79f 79f
1:50pm 3.5ft 10s 5s 11 13 mph 1017mb 79f 79f
12:50pm 4ft 10s 6s 13 18 mph 1016.3mb 79f 78f
11:50am 4ft 10s 6s 11 13 mph 1015.9mb 79f 78f
10:50am 3.5ft 9s 5s 13
mph
1015.2mb 79f 78f
9:50am 4ft 10s 6s 13 16 mph 1014.5mb 79f 78f
8:50am 4ft 10s 6s 16 18 mph 1013.8mb 79f 78f
7:50am 4ft 9s 5s 13 16 mph 1014.5mb 79f 77f
6:50am 4ft 10s 6s 16 18 mph 1014.9mb 79f 77f
5:50am 4ft 9s 5s 16 18 mph 1015.1mb 79f 77f
4:50am 4ft 11s 5s 16 20 mph 1015.1mb 79f 77f
3:50am 4ft 10s 5s 16 18 mph 1015.5mb 79f 77f
2:50am 4ft 8s 5s 16 18 mph 1016.2mb 79f 77f
1:50am 4ft 9s 6s 13 16 mph 1016.2mb 79f 77f
12:50am 4ft 9s 5s 13 16 mph 1016.1mb 79f 77f
Sat 01/24 11:50pm 4ft 9s 6s 11 16 mph 1015.8mb 79f 77f
10:50pm 3.5ft 10s 5s 13 16 mph 1015.2mb 79f 77f
9:50pm 4ft 9s 6s 13 16 mph 1014.9mb 79f 78f
8:50pm 4ft 10s 6s 11 13 mph 1014.9mb 79f 78f
7:50pm 3.5ft 10s 6s 13 16 mph 1014.8mb 79f 78f
6:50pm 4ft 10s 6s 11 13 mph 1015.1mb 79f 78f
5:50pm 4ft 9s 5s 11 13 mph 1015.7mb 79f 78f
4:50pm 3.5ft 10s 5s 11 13 mph 1016.9mb 79f 77f
3:50pm 4ft 10s 5s 13
mph
1017.8mb 79f 77f
2:50pm 4.5ft 9s 6s 13 16 mph 1018.4mb 79f 77f
1:50pm 4ft 10s 5s 16 18 mph 1018.1mb 79f 77f
12:50pm 4.5ft 9s 5s 16 18 mph 1017.7mb 79f 77f
11:50am 4.5ft 10s 5s 13 18 mph 1017.3mb 79f 76f
10:50am 4.5ft 10s 5s 16 18 mph 1016.8mb 79f 76f
9:50am 4.5ft 9s 5s 16 18 mph 1016.5mb 79f 76f
8:50am 4.5ft 6s 5s 16 20 mph 1016.4mb 79f 76f
7:50am 4.5ft 10s 5s 16 20 mph 1016.6mb 79f 76f
6:50am 5ft 9s 5s 18 20 mph 1016.9mb 79f 76f
5:50am 4.5ft 9s 5s 18 22 mph 1017.5mb 79f 76f
4:50am 5ft 9s 5s 18 22 mph 1018mb 79f 76f
3:50am 5ft 9s 5s 20 25 mph 1018.5mb 79f 76f
2:50am 4.5ft 5s 5s 20 22 mph 1019mb 79f 76f
1:50am 4.5ft 10s 5s 20 25 mph 1018.8mb 79f 76f
12:50am 4.5ft 9s 5s 20 25 mph 1018.4mb 79f 76f
Fri 01/23 11:50pm 4.5ft 10s 5s 20 25 mph 1018.1mb 79f 76f
10:50pm 4.5ft 9s 5s 18 22 mph 1017.8mb 79f 76f
9:50pm 4ft 9s 5s 18 20 mph 1017.8mb 79f 76f
8:50pm 4ft 8s 5s 16 20 mph 1017.6mb 79f 76f
7:50pm 3.5ft 9s 5s 16 18 mph 1017.5mb 79f 76f
6:50pm 4.5ft 10s 5s 16 18 mph 1017.7mb 79f 76f
5:50pm 4ft 10s 5s 16 18 mph 1018mb 79f 76f
4:50pm 4ft 9s 5s 16 18 mph 1018.4mb 79f 76f
3:50pm 4ft 9s 5s 13 18 mph 1019.4mb 79f 76f
2:50pm 4ft 9s 5s 16 18 mph 1019.8mb 79f 76f
1:50pm 4ft 8s 5s 13 16 mph 1019.6mb 78f 76f
12:50pm 4.5ft 9s 5s 16 18 mph 1019.1mb 78f 76f
11:50am 4ft 8s 5s 16 18 mph 1018.9mb 79f 76f
10:50am 4.5ft 10s 5s 13 16 mph 1018.2mb 79f 76f
9:50am 4.5ft 10s 5s 13 18 mph 1017.6mb 79f 76f
8:50am 4.5ft 6s 5s 13 16 mph 1017.5mb 79f 76f
7:50am 4.5ft 9s 5s 16 18 mph 1017.6mb 79f 76f
6:50am 4.5ft 5s 5s 13 16 mph 1017.7mb 79f 76f
5:50am 4.5ft 5s 5s 16 18 mph 1018.2mb 79f 76f
4:50am 4.5ft 6s 5s 18 20 mph 1018.5mb 79f 76f
3:50am 5ft 5s 5s 20 22 mph 1018.8mb 79f 76f
2:50am 5ft 6s 5s 20 22 mph 1019.2mb 79f 77f
1:50am 5ft 9s 5s 20 22 mph 1019.1mb 79f 76f
12:50am 5ft 10s 5s 20 25 mph 1019.2mb 79f 77f
Thu 01/22 11:50pm 4.5ft 9s 5s 20 25 mph 1019.1mb 79f 77f
10:50pm 4.5ft 9s 5s 18 22 mph 1018.7mb 79f 77f
9:50pm 4.5ft 10s 5s 18 22 mph 1018mb 79f 77f
8:50pm 4.5ft 10s 5s 18 22 mph 1017.5mb 79f 77f
7:50pm 4.5ft 10s 6s 18 20 mph 1017.1mb 79f 77f
6:50pm 5ft 9s 6s 18 20 mph 1016.9mb 79f 77f
5:50pm 4.5ft 10s 6s 16 18 mph 1017.2mb 79f 77f
4:50pm 4.5ft 10s 6s 13 16 mph 1017.7mb 78f 77f
3:50pm 5ft 10s 6s 13 16 mph 1018.6mb 78f 77f
2:50pm 4.5ft 10s 6s 11 13 mph 1019mb 78f 77f
1:50pm 4.5ft 9s 6s 9 11 mph 1018.7mb 78f 76f
12:50pm 5ft 9s 6s 11 13 mph 1017.9mb 78f 76f
11:50am 5ft 10s 6s 13 16 mph 1017.2mb 78f 76f
10:50am 5ft 10s 6s 13 18 mph 1016.3mb 78f 76f
9:50am 5ft 10s 6s 13 16 mph 1015.7mb 78f 75f
8:50am 5ft 10s 6s 16 20 mph 1015mb 78f 75f
7:50am 5ft 9s 6s 9 11 mph 1015mb 77f 75f
6:50am 5ft 10s 6s 11 13 mph 1015.4mb 78f 74f
5:50am 5ft 10s 7s 9 11 mph 1015.9mb 77f 74f
4:50am 5ft 10s 7s 9 13 mph 1016.4mb 77f 72f
3:50am 4.5ft 9s 7s 7
mph
1016.9mb 77f 76f
2:50am 5.5ft 10s 7s 4 7 mph 1016.9mb 77f 76f